This demonstration page uses our WeatherBlox Daily Observations layout. Learn more.

Left ArrowRight Arrow

36.17497, -115.13722

Hourly Observations for August 23, 2021

Temp ( °F °C ) Dew Point ( °F °C ) Humidity (%) Winds ( mph kmh ) Pressure ( in mb ) Visibility ( mi km ) Precip ( " mm )
12:53 am 00:53 Clear 81 27.2 26 -3.3 13 13 Calm 29.74 1007 10 16 0.00 0.00
1:53 am 01:53 Clear 77 25 27 -2.8 16 16 WNW 7 11 29.75 1008 10 16 0.00 0.00
2:53 am 02:53 Clear 76 24.4 31 -0.6 19 19 Calm 29.75 1008 10 16 0.00 0.00
3:53 am 03:53 Clear 74 23.3 29 -1.7 19 19 NW 3 6 29.76 1008 10 16 0.00 0.00
4:53 am 04:53 Clear 74 23.3 29 -1.7 19 19 WNW 7 11 29.77 1008 10 16 0.00 0.00
5:53 am 05:53 Clear 72 22.2 30 -1.1 21 21 NW 5 7 29.78 1008 10 16 0.00 0.00
6:53 am 06:53 Sunny 74 23.3 30 -1.1 20 20 WNW 6 9 29.80 1009 10 16 0.00 0.00
7:53 am 07:53 Sunny 80 26.7 33 0.6 18 18 Calm 29.82 1010 10 16 0.00 0.00
8:53 am 08:53 Sunny 84 28.9 30 -1.1 14 14 Calm 29.83 1010 10 16 0.00 0.00
9:53 am 09:53 Sunny 88 31.1 30 -1.1 12 12 VRB 3 6 29.83 1010 10 16 0.00 0.00
10:53 am 10:53 Sunny 92 33.3 35 1.7 13 13 ESE 8 13 29.83 1010 10 16 0.00 0.00
11:53 am 11:53 Sunny 95 35 36 2.2 13 13 SSE 8 13 29.81 1010 10 16 0.00 0.00
12:53 pm 12:53 Sunny 98 36.7 35 1.7 11 11 E 12 19 29.79 1009 10 16 0.00 0.00
1:53 pm 13:53 Sunny 100 37.8 28 -2.2 8 8 SSE 15 24 29.77 1008 10 16 0.00 0.00
2:53 pm 14:53 Sunny 100 37.8 31 -0.6 9 9 SSE 10 17 29.75 1007 10 16 0.00 0.00
3:53 pm 15:53 Sunny 102 38.9 37 2.8 10 10 SE 15 24 29.72 1007 10 16 0.00 0.00
4:53 pm 16:53 Sunny 102 38.9 28 -2.2 7 7 SSW 10 17 29.71 1006 10 16 0.00 0.00
5:53 pm 17:53 Sunny 101 38.3 29 -1.7 8 8 SSW 13 20 29.71 1006 10 16 0.00 0.00
6:53 pm 18:53 Sunny 99 37.2 30 -1.1 9 9 SSW 14 22 29.71 1006 10 16 0.00 0.00
7:53 pm 19:53 Clear 97 36.1 31 -0.6 10 10 SSW 13 20 29.72 1007 10 16 0.00 0.00
8:53 pm 20:53 Clear 95 35 33 0.6 11 11 SSW 15 24 29.75 1008 10 16 0.00 0.00
9:53 pm 21:53 Clear 93 33.9 35 1.7 13 13 S 12 19 29.77 1008 10 16 0.00 0.00
10:53 pm 22:53 Clear 90 32.2 35 1.7 14 14 S 10 17 29.78 1009 10 16 0.00 0.00
11:53 pm 23:53 Clear 87 30.6 35 1.7 16 16 SSE 8 13 29.79 1009 10 16 0.00 0.00

Powered by AerisWeather